Flag for U.S.A. Weather past 2 weeks in Trenton, New Jersey, U.S.A.

Now
78 °F

Light rain. Cloudy.


Feels Like: 81 °F
Forecast: 75 / 88 °F
Wind: 8 mph from Southwest

Location: Mercer County Airport

Current Time: Jul 30, 2015 at 10:16:41 AM

Latest Report: Jul 30, 2015 at 8:53 AM


Visibility: 9 mi

Pressure: 29.88 "Hg

Humidity: 87%

Dew point: 74 °F

Location of TrentonLocation

Historic Weather in Trenton — Graph

°F

Trenton temperature yesterday

Maximum temperature yesterday: 92 °F (at 12:53 PM)
Minimum temperature yesterday: 72 °F (at 2:53 AM)
Average temperature yesterday: 82 °F

Past Weeks' High & Low Weather Summary

 TemperatureHumidityPressure
High94 °F (Jul 19, 4:53 PM)93% (Jul 15, 9:03 AM)30.09 "Hg (Jul 15, 9:03 AM)
Low60 °F (Jul 16, 5:53 AM)30% (Jul 25, 2:53 PM)29.57 "Hg (Jul 21, 5:53 PM)
Average77 °F65%29.88 "Hg
* Reported Jul 15 9:03 AM — Jul 30 8:53 AM, Trenton, Weather by CustomWeather, © 2015

Note: Actual official high and low records may vary slightly from our data, if they occured in-between our weather recording intervals... More about our weather records

Advertising

Trenton weather history for previous 24 hours

 ConditionsComfort  
Time TempWeatherWind HumidityBarometerVisibility
8:53 AM
Thu, Jul 30
78 °FLight rain. Cloudy.8 mph87%29.88 "Hg9 mi
7:53 AM78 °FMostly cloudy.8 mph84%29.89 "Hg10 mi
7:04 AM77 °FBroken clouds.8 mph85%29.92 "Hg10 mi
6:53 AM77 °FMostly cloudy.7 mph85%29.89 "Hg10 mi
5:53 AM76 °FPassing clouds.8 mph88%29.88 "Hg10 mi
4:53 AM75 °FClear.5 mph90%29.88 "Hg8 mi
3:53 AM75 °FClear.6 mph90%29.90 "Hg8 mi
2:53 AM76 °FClear.6 mph88%29.91 "Hg9 mi
1:53 AM77 °FClear.3 mph82%29.92 "Hg10 mi
12:53 AM77 °FClear.5 mph85%29.92 "Hg10 mi
11:53 PM
Wed, Jul 29
77 °FClear.6 mph82%29.92 "Hg10 mi
10:53 PM79 °FClear.6 mph77%29.92 "Hg10 mi
9:53 PM81 °FClear.9 mph74%29.93 "Hg10 mi
8:53 PM83 °FSunny.12 mph70%29.91 "Hg10 mi
7:53 PM85 °FSunny.12 mph63%29.90 "Hg10 mi
6:53 PM87 °FSunny.8 mph57%29.89 "Hg10 mi
5:53 PM92 °FSunny.12 mph40%29.89 "Hg10 mi
4:53 PM91 °FScattered clouds.7 mph42%29.90 "Hg9 mi
3:53 PM91 °FSunny.8 mph42%29.91 "Hg9 mi
2:53 PM90 °FBroken clouds.7 mph47%29.94 "Hg8 mi
1:53 PM90 °FScattered clouds.8 mph45%29.95 "Hg8 mi
12:53 PM92 °FScattered clouds.6 mph37%29.95 "Hg10 mi
11:53 AM90 °FPassing clouds.6 mph42%29.96 "Hg10 mi
10:53 AM90 °FSunny.5 mph47%29.97 "Hg10 mi
Weather by CustomWeather, © 2015

See weather overviewHow to use our weather pages